Content
SEND FEEDBACK

Daily
Averages
Monthly
Summary
French Polynesia

FAAA, FRENCH POLYNESIA


Home > Oceania > French Polynesia
Elevation: 7 feet     Latitude: 17 33S     Longitude: 149 37W

WEATHER
 
SELECT A DAY
Number of Records: 214,168;   Date Range: 6/30/96 - 10/20/14
 
SHARE

PRINT THIS DATA

[ ← Previous Day ]
WEATHER ALMANAC - MAY 9, 2013
[ Next Day → ]
[ °C ]   °F
Weather ElementAverageHighLow
Temperature81.7 °F87.8 °F (2:30 pm)77 °F (2:00 am)
Dewpoint72 °F73.4 °F (5:00 am)71 °F (2:00 am)
Humidity71.9 %83 % (2:00 am)51 % (2:00 pm)
Barometer29.91 in29.95 in (8:00 am)29.86 in (2:30 pm)
Wind Speed4.5 mph17.9 mph (5:00 pm)
Weather ElementAverage
Visibility7.6 mi
Wind DirectionESE (124 °)

Weather ElementTotal
Precipitation---
Cooling Degree Days17.4 (Base 65)
Growing Degree Days32.4 (Base 50)
Averaged from 53 records on May 9, 2013
WEATHER CONDITIONS BREAKOUT
WIND DIRECTION BREAKOUT
WEATHER BY HOUR - MAY 9, 2013
[ °C ]   °F
Local TimeTemperatureDewpointHumidityBarometerVisibilityWind DirectionWind SpeedGust SpeedPrecipitationEventsConditions
12:30 AM78.8 °F71.6 °F78 %29.89 in6.2 miSSE (150°)2.3 mphPartly Cloudy
1:00 AM78.8 °F71.6 °F78 %29.89 in6.2 miSouth (170°)4.6 mphScattered Clouds
1:30 AM78.8 °F71.6 °F78 %29.89 in6.2 miVariable3.5 mphMostly Cloudy
2:00 AM78.0 °F71.0 °F75 %29.89 in12.0 miSSE (150°)1.2 mphScattered Clouds
2:00 AM77.0 °F71.6 °F83 %29.89 in6.2 miVariable1.2 mphPartly Cloudy
2:30 AM77.0 °F71.6 °F83 %29.89 in6.2 miESE (110°)3.5 mphPartly Cloudy
3:00 AM77.0 °F71.6 °F83 %29.89 in6.2 miEast (90°)3.5 mphPartly Cloudy
3:30 AM77.0 °F71.6 °F83 %29.89 in6.2 miEast (80°)3.5 mphMostly Cloudy
4:00 AM77.0 °F71.6 °F83 %29.89 in6.2 miEast (90°)4.6 mphOvercast
4:30 AM77.0 °F71.6 °F83 %29.89 in6.2 miEast (100°)4.6 mphOvercast
5:00 AM78.0 °F73.0 °F80 %29.89 in34.0 miSSE (160°)6.7 mphClear
5:00 AM78.8 °F73.4 °F83 %29.89 in6.2 miSSE (160°)3.5 mphOvercast
5:30 AM78.8 °F71.6 °F78 %29.89 in6.2 miVariable3.5 mphOvercast
6:00 AM78.8 °F71.6 °F78 %29.89 in6.2 miCalmMostly Cloudy
6:30 AM78.8 °F71.6 °F78 %29.92 in6.2 miVariable2.3 mphMostly Cloudy
7:00 AM78.8 °F71.6 °F78 %29.92 in6.2 miEast (100°)3.5 mphMostly Cloudy
7:30 AM80.6 °F71.6 °F74 %29.92 in6.2 miVariable2.3 mphPartly Cloudy
8:00 AM82.0 °F71.0 °F63 %29.95 in12.0 miCalmPartly Cloudy
8:00 AM82.4 °F71.6 °F70 %29.95 in6.2 miCalmPartly Cloudy
8:30 AM84.2 °F71.6 °F66 %29.95 in6.2 miVariable2.3 mphPartly Cloudy
9:00 AM84.2 °F73.4 °F70 %29.95 in6.2 miVariable1.2 mphPartly Cloudy
9:30 AM84.2 °F73.4 °F70 %29.95 in6.2 miVariable2.3 mphPartly Cloudy
10:00 AM86.0 °F73.4 °F66 %29.95 in6.2 miWSW (250°)3.5 mphPartly Cloudy
10:30 AM86.0 °F73.4 °F66 %29.95 in6.2 miVariable3.5 mphScattered Clouds
11:00 AM86.0 °F73.0 °F57 %29.95 in16.0 miWest (270°)6.7 mphScattered Clouds
11:00 AM86.0 °F73.4 °F66 %29.95 in6.2 miWest (270°)3.5 mphPartly Cloudy
11:30 AM86.0 °F73.4 °F66 %29.92 in6.2 miWSW (250°)4.6 mphMostly Cloudy
12:00 PM86.0 °F73.4 °F66 %29.92 in6.2 miWest (280°)5.8 mphMostly Cloudy
1:00 PM86.0 °F73.4 °F66 %29.89 in6.2 miSW (220°)8.1 mphMostly Cloudy
1:30 PM86.0 °F71.6 °F62 %29.89 in6.2 miSSW (210°)9.2 mphPartly Cloudy
2:00 PM87.0 °F71.0 °F51 %29.89 in16.0 miSSW (210°)8.1 mphScattered Clouds
2:00 PM86.0 °F71.6 °F62 %29.89 in6.2 miSSW (210°)9.2 mphPartly Cloudy
2:30 PM87.8 °F71.6 °F58 %29.86 in6.2 miSW (230°)6.9 mphScattered Clouds
3:00 PM86.0 °F71.6 °F62 %29.86 in6.2 miSSW (210°)4.6 mphMostly Cloudy
3:30 PM86.0 °F71.6 °F62 %29.86 in6.2 miSSW (210°)5.8 mphMostly Cloudy
4:00 PM84.2 °F71.6 °F66 %29.89 in6.2 miSouth (190°)8.1 mphMostly Cloudy
4:30 PM84.2 °F71.6 °F66 %29.89 in6.2 miSouth (190°)9.2 mphMostly Cloudy
5:00 PM83.0 °F72.0 °F63 %29.90 in16.0 miSSW (200°)17.9 mphOvercast
5:00 PM84.2 °F71.6 °F66 %29.89 in6.2 miSSW (200°)9.2 mphMostly Cloudy
5:30 PM82.4 °F71.6 °F70 %29.89 in6.2 miSSW (210°)6.9 mphMostly Cloudy
6:00 PM82.4 °F71.6 °F70 %29.89 in6.2 miVariable2.3 mphMostly Cloudy
6:30 PM82.4 °F71.6 °F70 %29.92 in6.2 miWSW (240°)4.6 mphMostly Cloudy
7:00 PM82.4 °F71.6 °F70 %29.92 in6.2 miVariable2.3 mphMostly Cloudy
7:30 PM80.6 °F71.6 °F74 %29.92 in6.2 miEast (80°)3.5 mphPartly Cloudy
8:00 PM80.0 °F72.0 °F71 %29.94 in12.0 miEast (100°)2.3 mphScattered Clouds
8:00 PM80.6 °F71.6 °F74 %29.92 in6.2 miVariable2.3 mphPartly Cloudy
8:30 PM80.6 °F71.6 °F74 %29.95 in6.2 miSouth (170°)4.6 mphPartly Cloudy
9:00 PM80.6 °F73.4 °F79 %29.95 in6.2 miSouth (180°)4.6 mphPartly Cloudy
9:30 PM80.6 °F73.4 °F79 %29.95 in6.2 miSouth (170°)5.8 mphPartly Cloudy
10:00 PM80.6 °F73.4 °F79 %29.95 in6.2 miEast (100°)3.5 mphPartly Cloudy
10:30 PM78.8 °F71.6 °F78 %29.95 in6.2 miVariable2.3 mphPartly Cloudy
11:00 PM78.8 °F71.6 °F78 %29.95 in6.2 miSSE (160°)4.6 mphPartly Cloudy
11:30 PM78.8 °F71.6 °F78 %29.95 in6.2 miEast (80°)4.6 mphPartly Cloudy
Hourly data recorded from NTAA, located miles away from Faaa, French Polynesia







STORIES FROM OUR PARTNERS